Regional Weather Roundup
Issued by NWS

Home | Current Version | Previous Version | Graphics & Text | Print | Product List | Glossary On
Versions: 1 2 3 4 5 6 7 8 9 10 11 12 13 14 15 16 17 18 19 20 21 22 23 24 25 26 27 28 29 30 31 32 33 34 35 36 37 38 39 40 41 42 43 44 45 46 47 48 49 50
765
ASUS43 KBIS 240310
RWRND

NORTH DAKOTA REGIONAL WEATHER ROUNDUP
NATIONAL WEATHER SERVICE BISMARCK ND
1000 PM CDT MON MAY 23 2016

NOTE: "FAIR" INDICATES FEW OR NO CLOUDS BELOW 12,000 FEET WITH NO
SIGNIFICANT WEATHER AND/OR OBSTRUCTIONS TO VISIBILITY.


NDZ001>003-009>011-017-240400-
NORTHWEST NORTH DAKOTA

CITY           SKY/WX    TMP DP  RH WIND       PRES   REMARKS
WILLISTON      CLEAR     59  37  44 W8        29.72R
MINOT          MOCLDY    64  43  46 VRB3      29.71R
MINOT AFB      CLOUDY    60  39  46 SW3       29.69R
$$

NDZ018>021-031>035-040>046-240400-
SOUTHWEST NORTH DAKOTA

CITY           SKY/WX    TMP DP  RH WIND       PRES   REMARKS
BISMARCK       CLOUDY    67  39  35 W17G24    29.74R
DICKINSON      CLEAR     51  34  52 NW8       29.73R
GARRISON         N/A     57  44  62 CALM      29.71S
HETTINGER ARPT CLOUDY    56  40  55 NE12      29.75R
$$

NDZ004>008-012>016-024-026-027-054-240400-
NORTHEAST NORTH DAKOTA

CITY           SKY/WX    TMP DP  RH WIND       PRES   REMARKS
GRAND FORKS    PTCLDY    65  52  62 N8        29.68R
GRND FRKS AFB  CLOUDY    68  48  47 VRB5      29.70R
DEVILS LAKE    CLEAR     62  47  57 SE5       29.70R
$$

NDZ022-023-025-028>030-036>039-047>053-240400-
SOUTHEAST NORTH DAKOTA

CITY           SKY/WX    TMP DP  RH WIND       PRES   REMARKS
FARGO          PTCLDY    72  45  37 E10       29.67S
JAMESTOWN      CLEAR     62  50  64 N10       29.70R
$$





USA.gov is the U.S. government's official web portal to all federal, state and local government web resources and services.